Regional Weather Roundup
Issued by NWS Bismarck, ND

Home | Current Version | Previous Version | Text Only | Print | Product List | Glossary On
Versions: 1 2 3 4 5 6 7 8 9 10 11 12 13 14 15 16 17 18 19 20 21 22 23 24 25 26 27 28 29 30 31 32 33 34 35 36 37 38 39 40 41 42 43 44 45 46 47 48 49 50
000
ASUS43 KBIS 011120
RWRBIS

NWR BROADCAST TEXT
NATIONAL WEATHER SERVICE BISMARCK ND
500 AM CST SUN FEB 01 2015

NOTE: "FAIR" INDICATES FEW OR NO CLOUDS BELOW 12,000 FEET WITH NO
SIGNIFICANT WEATHER AND/OR OBSTRUCTIONS TO VISIBILITY.


CITY           SKY/WX    TMP DP  RH WIND       PRES   REMARKS
WILLISTON      PTCLDY   -14 -20  74 W3        30.48F
MINOT          CLOUDY    -9 -18  64 NW8       30.50S WCI -25
MINOT AFB      PTCLDY    -8 -16  67 N6        30.51S WCI -21
BISMARCK       CLOUDY    -5 -13  68 N13       30.48R WCI -24
DICKINSON      FLURRIES  -4 -10  75 N7        30.37R WCI -18
GARRISON         N/A     -8 -15  71 N7        30.47S WCI -23
HETTINGER ARPT LGT SNOW  -3  -8  79 N10       30.36S WCI -20
JAMESTOWN      MOCLDY    -7 -15  68 N16       30.45R WCI -29
BEACH          FLURRIES  -2  -8  78 NW6       30.39F WCI -14
CARRINGTON     FAIR      -8 -17  65 MISG      30.48S
CROSBY         FAIR      -8 -15  71 CALM      30.49F
HARVEY         FAIR      -9 -17  70 N9        30.50S WCI -27
HAZEN          CLOUDY    -6 -15  65 N8        30.50R WCI -21
LINTON         CLOUDY    -4  -9  77 N14       30.42S HAZE    WCI -24
MANDAN         PTSUNNY   -4 -11  71 N9        30.45S WCI -20
OAKES            N/A     -2  -9  71 N21       30.40S WCI -25
RUGBY          FAIR     -13 -18  77 E3        30.52S
STANLEY        PTSUNNY   -9 -17  70 CALM      30.44S
TIOGA          FAIR     -11 -17  77 CALM      30.46F
WATFORD CITY   FAIR      -8 -13  77 N3        30.45F
$$

CITY           SKY/WX    TMP DP  RH WIND       PRES   REMARKS
GRAND FORKS    MOCLDY   -11 -19  68 N15       30.57S WCI -33
GRAND FORKS AF PTCLDY   -12 -21  65 N13       30.57S WCI -33
DEVILS LAKE    MOCLDY   -11 -24  53 N10       30.49F WCI -30
FARGO          CLOUDY    -5 -13  68 N20       30.47S WCI -28
CANDO          PTSUNNY  -13 -20  70 NE6       30.53S WCI -27
CAVALIER       FAIR     -11 -18  70 N7        30.60F WCI -26
GWINNER        CLOUDY    -2 -11  65 N23       30.41S WCI -26
ROLLA          CLOUDY   -13 -22  64 N9        30.48S WCI -31
WALHALLA         N/A    -13 -20  70 N6        30.60F WCI -27
$$

CITY           SKY/WX    TMP DP  RH WIND       PRES   REMARKS
ABERDEEN       LGT SNOW  -1  -8  72 N24G31    30.36R WCI -25
MOBRIDGE       LGT SNOW  -2  -9  72 N17       30.36R WCI -23
BUFFALO          N/A      0  -5  79 N10       30.25R WCI -16
RAPID CITY     CLOUDY     5   1  83 N16       30.24S WCI -14
GLASGOW        CLEAR     -2  -6  83 S5        30.45S WCI -12
SIDNEY         PTCLDY    -9 -17  70 CALM      30.50F
WOLF POINT     PTCLDY    -2  -7  79 CALM      30.50F
GLENDIVE       PTCLDY    -6 -11  77 CALM      30.43S
MILES CITY     FLURRIES   2  -2  83 CALM      30.42S
BAKER          LGT SNOW   0  -5  79 NW9       30.36S WCI -15
$$

CITY           SKY/WX    TMP DP  RH WIND       PRES   REMARKS
BILLINGS       CLOUDY     9   6  88 E3        30.34F
GREAT FALLS    FOG        0  -2  92 S3        30.27F VSB 1/2
REGINA         PTCLDY   -13 -17  84 SW6       30.49F WCI -27
ESTEVAN        PTCLDY   -11 -17  77 S2        30.48F
$$



USA.gov is the U.S. government's official web portal to all federal, state and local government web resources and services.